VENESAT-1

Last updated on March 31, 2020, 4:58 a.m. UTC

1 33414U 08055A   20090.83693516  .00000080  00000-0  00000-0 0  9993
2 33414   0.0461  10.3593 0056334 222.9454 115.6209  0.99269962 41920
UTC
Height (km)
Latitude
Longitude
Inclination
Orbital Period
UTC large
Height (km)
Speed (km/s)
/
Latitude / Longitude
Inclination (degrees)
Orbital Period (minutes)
Azimuth
Elevation
Range (km)
Doppler Factor
iOS Compass Heading
iOS Angle

Next 30 passes for location: Hong Kong

Rise time Rise Azimuth (degrees) Set time Set Azimuth (degrees) Duration Max altitude (degrees)

No matching passes for this satellites